Weather in Tataurovo

Russia / Kirov Oblast     57°48′48″N   49°33′55″E
temp.,
°C
wind,
m/s
gust,
m/s
humid.,
%
clouds,
%
prec.,
mm/h
press.,
hPa
HPBL,
m
5 december, sun
sun500:00−4wsw71389100 0.2 1005767
03:00−5wsw71389100 0.4 1006914
06:00−10wnw5148886 0.1 1009607
09:00−14wnw37915 0.2 1013324
12:00−13wnw478312 0.0 1015498
15:00−15nw36887 0.0 1018137
18:00−18nw24955 0.0 102074
21:00−19nw239833 0.0 102154
6 december, mon
mon600:00−19nw12996 0.0 102324
03:00−20nnw24996 0.0 102469
06:00−20nnw12995 0.0 102525
09:00−19nnw23985 0.0 102863
12:00−16nne22895 0.0 1028145
15:00−19nne22975 0.0 103012
18:00−20ne22985 0.0 103217
21:00−21e11985 0.0 10339
7 december, tue
tue700:00−21e119619 0.0 10349
03:00−20ese119441 0.0 103410
06:00−20ese229390 0.0 103416
09:00−16se278283 0.0 1034142
12:00−13se3879100 0.0 1034217
15:00−13se41083100 0.0 1033212
18:00−11se51381100 0.0 1032337
21:00−9se71683100 0.0 1029443
8 december, wed
wed800:00−8se81890100 0.3 1027553
03:00−7sse91895100 2.4 1024670
06:00−6sse81695100 3.9 1022570
09:00−5sse81696100 8.2 1021505
12:00−1s71696100 3.0 1019590
15:00+1ssw71697100 4.0 1019673
18:00+1ssw61497100 0.0 1020611
21:00+1ssw61498100 0.0 1021532
9 december, thu
thu900:00+1s51396100 0.1 1022427
03:000s41195100 0.1 1023352
06:00−1s41096100 0.0 1023297
09:00−2sse41097100 0.0 1024249
12:000s51295100 0.0 1024379
15:00−2sse51193100 0.0 1024298
18:00−3s51193100 0.0 1024266
21:00−3sse41096100 0.0 1024240